Dewpoint
64 64 64 64 64 64 63 63 63 63 62 62 61 62 62 62 60 53 44 47 51 65 59 45 43 41 39 37 39 34 26 26 26 27 27 27 22 22 23 21 21 21 28 38 43
64 64 64 64 63 63 63 63 63 62 62 62 62 62 61 60 52 44 52 65 66 65 39 41 38 39 30 35 34 30 27 28 18 16 19 23 22 22 21 22 21 26 30 39 40
64 64 64 64 63 63 63 63 62 62 62 62 62 62 61 59 47 38 65 65 66 61 43 42 34 26 28 28 31 29 24 27 27 29 26 27 23 25 23 22 28 26 27 28 29
64 64 63 63 63 63 63 63 63 62 61 61 61 61 60 51 32 42 66 67 65 49 41 38 30 30 28 27 27 23 23 23 30 31 26 25 26 24 24 22 25 27 29 30 31
63 63 63 63 63 63 63 63 62 62 61 61 61 61 50 43 39 49 65 62 50 42 41 38 29 30 29 26 25 24 24 23 22 28 26 28 24 23 23 25 26 27 31 32 32
63 63 63 63 63 63 63 62 62 61 61 60 61 60 49 37 44 52 53 48 42 38 35 34 31 30 28 27 25 26 26 22 21 20 22 23 23 24 24 23 25 30 31 32 33
63 63 62 62 62 62 62 62 61 61 60 59 60 53 42 36 36 48 47 43 40 37 35 32 30 29 30 28 29 25 20 21 21 21 22 24 23 24 24 22 24 29 31 33 34
62 62 61 62 62 62 62 61 60 59 59 59 59 50 40 38 36 40 41 39 34 32 33 34 30 34 32 29 25 21 21 18 20 23 26 19 15 26 24 22 24 28 31 33 35
62 61 61 61 61 61 60 60 59 59 58 59 51 47 35 43 31 36 37 31 32 32 31 28 31 30 31 26 24 22 15 16 22 21 24 21 19 25 22 22 24 28 30 32 36
60 60 60 61 61 60 59 58 58 57 54 51 47 37 35 31 33 33 36 33 30 31 30 32 29 27 28 25 21 17 15 15 18 19 20 20 19 23 22 22 22 26 29 31 35
59 59 59 60 60 60 56 51 44 43 45 37 35 34 30 32 32 30 33 30 31 30 27 29 28 27 27 27 25 18 18 15 14 22 19 18 18 18 21 21 22 26 30 31 34
58 58 58 60 60 59 54 45 37 34 34 39 38 34 30 33 28 29 31 28 29 28 29 27 27 29 28 23 20 19 18 16 17 23 18 18 17 19 22 22 22 26 30 31 32
58 58 58 59 58 56 52 46 41 40 28 32 34 31 33 32 30 28 30 29 28 27 28 26 28 29 25 21 19 17 17 17 16 20 19 19 20 21 23 24 25 28 31 31 32
58 58 58 57 53 51 50 45 45 40 23 25 34 32 28 33 31 32 30 28 28 27 28 28 29 25 20 18 19 18 21 20 19 17 13 19 16 19 22 23 24 28 30 31 32
58 58 58 55 45 45 40 42 41 34 18 26 32 32 27 31 31 30 30 29 27 27 25 25 23 23 21 20 20 20 26 22 23 19 22 19 17 17 22 22 23 27 29 31 32
57 58 57 54 51 41 39 38 37 27 21 25 30 28 26 31 30 29 28 28 28 26 26 24 24 23 22 24 24 25 23 23 22 21 18 18 17 17 21 22 24 25 28 30 33
57 57 56 52 42 41 38 37 29 25 23 24 26 29 25 27 29 26 26 24 24 22 22 23 21 22 24 23 25 23 20 19 20 19 18 18 17 17 21 23 23 24 27 31 32
57 57 56 48 45 40 37 32 27 27 24 27 27 29 27 28 28 26 25 24 25 23 23 23 20 22 23 23 21 21 20 19 16 17 14 18 14 16 21 22 25 25 27 31 32
56 56 54 51 50 43 33 24 27 25 24 25 26 25 25 27 27 26 26 24 24 24 21 21 21 25 24 24 22 21 21 21 17 16 12 13 14 18 20 20 23 24 27 30 32
55 52 50 49 46 41 31 29 28 24 27 27 23 24 23 24 23 25 25 25 25 25 25 22 19 24 25 24 25 23 24 18 17 11 10 13 10 13 17 19 21 23 27 30 32
52 47 46 47 44 39 30 27 29 26 28 26 24 24 24 24 23 23 21 23 25 27 25 23 20 22 23 22 22 22 20 20 18 19 14 9 11 16 17 18 21 22 26 30 31
48 38 46 46 38 36 31 29 34 27 31 31 28 28 24 26 24 23 22 23 26 27 23 23 21 21 21 22 23 21 20 19 17 12 16 14 15 19 20 21 22 22 24 29 31
43 43 46 42 33 33 31 30 31 31 28 28 29 29 27 25 24 24 25 29 31 25 23 22 19 18 20 22 21 20 22 20 19 18 15 15 16 21 20 21 23 23 24 29 32
44 39 42 43 38 33 31 28 31 34 32 29 28 28 25 24 26 25 28 33 29 31 37 30 21 20 18 19 21 19 20 21 20 17 16 17 16 15 19 20 23 24 25 30 32
46 40 37 34 34 33 31 33 30 31 33 30 27 27 25 23 23 25 31 29 31 37 28 25 22 23 23 21 19 20 21 20 19 18 15 14 15 16 19 21 21 25 30 32 32
44 39 37 36 34 34 33 30 31 31 31 29 27 27 27 24 25 24 28 27 25 30 26 28 25 23 22 22 20 20 20 20 21 20 19 19 18 19 23 25 26 28 31 32 32
46 44 35 36 34 32 32 29 31 32 33 31 29 28 26 26 27 28 28 28 30 27 27 26 25 23 19 22 24 21 23 23 21 21 20 19 19 23 27 27 26 27 29 31 32
Lifted_Index
2 2 3 3 4 4 5 6 7 8 8 8 9 9 9 10 11 11 10 9 9 9 9 10 10 10 10 10 9 9 8 8 8 8 8 8 9 9 10 11 11 11 11 10 10
2 2 2 3 4 4 5 6 6 7 8 8 8 9 9 10 11 11 10 9 8 9 10 10 10 10 10 10 10 9 9 9 9 9 9 9 9 10 10 11 11 11 11 11 11
2 2 2 3 3 4 4 5 6 7 7 8 8 9 9 10 10 10 8 7 7 9 10 10 10 11 11 11 10 10 10 10 10 10 10 10 10 11 11 10 11 10 11 11 11
1 2 2 3 3 4 4 5 5 6 7 8 8 9 9 10 10 9 6 6 7 9 10 10 11 11 11 11 11 11 11 11 11 11 11 11 11 11 11 11 11 11 11 11 11
1 1 2 2 3 3 4 4 5 6 7 8 8 9 9 9 9 8 6 6 8 10 10 10 10 10 10 11 11 11 11 11 11 12 12 12 11 11 11 11 11 11 11 11 11
1 1 1 2 2 3 3 4 5 5 6 7 8 9 9 9 8 7 7 8 9 10 10 10 10 10 10 10 11 11 11 11 11 12 11 11 11 11 11 11 11 11 12 12 12
1 1 1 2 2 2 3 4 5 5 6 7 7 8 9 9 8 8 8 8 9 10 10 10 10 10 10 10 10 11 10 10 11 11 11 11 10 10 11 11 11 11 12 12 12
1 1 1 1 2 2 3 4 5 6 7 7 7 8 8 8 8 8 8 8 8 9 10 10 10 10 9 10 10 10 9 9 10 10 10 10 9 10 10 11 11 11 12 12 12
1 1 2 1 1 2 3 4 5 6 7 7 8 8 8 8 8 8 8 8 8 8 9 9 9 9 9 9 9 9 8 8 9 10 10 9 9 10 10 10 11 11 11 11 11
2 2 2 2 2 2 3 5 6 7 7 7 8 8 8 7 7 7 7 8 8 8 8 8 8 8 9 8 8 8 8 8 9 10 10 9 9 10 10 10 11 11 11 11 11
2 2 2 2 2 2 4 5 6 7 6 7 7 8 8 7 7 7 7 8 8 7 7 7 7 7 7 8 8 8 8 8 9 10 10 9 9 9 10 10 10 10 10 10 10
3 3 2 2 2 3 4 5 6 6 6 6 7 7 7 7 7 7 7 7 7 6 6 6 6 6 7 7 7 8 7 8 8 9 9 8 8 8 9 9 10 10 10 10 10
3 3 3 2 2 3 4 5 5 6 6 6 7 7 7 7 7 7 6 6 5 5 5 5 5 5 6 6 6 6 7 7 8 8 8 7 6 7 8 9 9 9 9 9 9
3 3 3 2 3 4 5 5 6 5 5 5 6 7 7 7 7 7 6 6 5 4 4 4 5 5 5 5 5 6 6 7 7 7 6 6 5 5 7 7 8 9 9 9 9
3 3 3 3 4 5 6 6 5 5 4 5 6 6 7 7 7 6 6 6 5 4 4 5 5 5 5 5 5 5 6 7 7 6 5 5 4 4 5 6 7 8 8 8 8
3 3 3 4 5 6 6 5 5 4 3 4 6 6 6 6 6 6 5 5 5 4 5 5 5 5 5 5 5 6 6 6 6 5 4 4 4 4 4 5 6 7 8 8 8
3 3 4 4 5 6 6 5 4 3 4 4 5 6 6 5 5 5 5 4 4 4 4 4 4 4 4 4 5 6 5 4 3 2 3 4 4 4 5 6 6 6 7 8 8
3 3 4 4 5 6 6 4 3 3 4 4 5 5 5 5 5 5 4 4 4 4 3 3 3 3 3 4 5 5 5 3 2 1 2 3 4 4 5 6 6 6 7 7 8
3 3 4 5 5 6 5 4 3 4 4 4 5 5 5 5 5 5 5 4 4 3 3 3 3 3 3 3 4 5 4 3 3 2 2 3 3 4 5 6 6 6 7 7 7
3 4 4 5 5 6 5 4 3 4 4 4 5 5 5 5 5 5 5 4 3 3 3 3 3 3 3 3 4 4 4 4 3 2 2 2 3 4 5 5 6 6 6 6 6
4 4 5 5 5 6 5 4 4 4 4 5 5 5 5 4 4 4 4 3 3 3 3 3 3 3 3 3 3 4 4 4 4 2 2 1 2 4 4 5 5 6 6 6 6
5 5 6 6 6 6 6 5 4 4 4 5 5 4 4 4 4 3 3 3 2 2 2 3 3 2 2 3 3 4 4 4 4 3 2 2 2 4 5 5 5 6 6 6 5
5 6 6 7 6 6 6 6 5 4 4 4 4 4 4 4 3 3 3 3 2 2 2 3 3 2 2 2 3 3 3 3 3 3 2 2 2 4 5 5 5 5 5 5 5
6 6 7 7 7 7 6 6 5 4 4 4 4 4 4 4 3 3 3 3 3 3 3 3 3 2 2 2 2 2 3 3 3 3 2 2 3 4 5 5 5 5 5 5 5
6 6 6 6 7 7 6 5 4 4 4 4 4 4 4 4 4 3 3 2 3 3 3 3 2 2 2 2 2 2 2 3 3 3 3 3 3 4 5 5 5 5 5 5 5
5 6 6 6 6 6 6 5 4 4 4 4 4 4 4 4 4 3 3 2 2 2 2 2 2 3 3 3 2 2 3 3 3 3 3 3 3 4 5 5 5 5 5 5 5
5 5 5 5 5 5 5 4 4 4 4 4 4 4 4 4 4 3 3 2 2 2 2 2 2 2 2 3 3 3 3 3 3 3 3 3 4 4 5 5 4 4 5 5 5